| time (UTC) | temp F | wind direction | speed knots | gust knots | rain 1hr in | rain 24hr in | rain mn in | humidity % | barometer mb |
| 20260506153205 | 46 | 61 | 1.7 | 6.1 | 0.00 | 0.00 | 0.00 | 67 | 1015.7 |
| 20260506152706 | 46 | 54 | 1.7 | 5.2 | 0.00 | 0.00 | 0.00 | 67 | 1015.6 |
| 20260506151205 | 48 | 69 | 2.6 | 6.1 | 0.00 | 0.00 | 0.00 | 63 | 1015.6 |
| 20260506150705 | 48 | 32 | 5.2 | 8.7 | 0.00 | 0.00 | 0.00 | 62 | 1015.5 |
| 20260506150206 | 49 | 40 | 3.5 | 10.4 | 0.00 | 0.00 | 0.00 | 62 | 1015.6 |
| 20260506145705 | 50 | 102 | 2.6 | 5.2 | 0.00 | 0.00 | 0.00 | 66 | 1015.5 |
| 20260506145205 | 49 | 65 | 1.7 | 5.2 | 0.00 | 0.00 | 0.00 | 66 | 1015.5 |
| 20260506144705 | 49 | 69 | 2.6 | 6.1 | 0.00 | 0.00 | 0.00 | 66 | 1015.6 |
| 20260506144206 | 48 | 20 | 2.6 | 5.2 | 0.00 | 0.00 | 0.00 | 66 | 1015.6 |
| 20260506143706 | 48 | 89 | 3.5 | 8.7 | 0.00 | 0.00 | 0.00 | 65 | 1015.7 |
| 20260506143205 | 47 | 29 | 3.5 | 8.7 | 0.00 | 0.00 | 0.00 | 65 | 1015.7 |
| 20260506142705 | 47 | 36 | 4.3 | 7.0 | 0.00 | 0.00 | 0.00 | 64 | 1015.8 |
| 20260506142205 | 47 | 23 | 1.7 | 5.2 | 0.00 | 0.00 | 0.00 | 66 | 1015.7 |
| 20260506141205 | 46 | 46 | 1.7 | 4.3 | 0.00 | 0.00 | 0.00 | 65 | 1015.7 |
| 20260506140705 | 46 | 59 | 5.2 | 7.8 | 0.00 | 0.00 | 0.00 | 63 | 1015.8 |
| 20260506140206 | 46 | 60 | 2.6 | 8.7 | 0.00 | 0.00 | 0.00 | 66 | 1015.8 |
| 20260506135205 | 46 | 51 | 2.6 | 5.2 | 0.00 | 0.00 | 0.00 | 65 | 1015.7 |
| 20260506134706 | 46 | 41 | 2.6 | 7.0 | 0.00 | 0.00 | 0.00 | 65 | 1015.7 |
| 20260506134205 | 47 | 65 | 1.7 | 7.0 | 0.00 | 0.00 | 0.00 | 65 | 1015.8 |
| 20260506133705 | 47 | 38 | 2.6 | 6.1 | 0.00 | 0.00 | 0.00 | 64 | 1015.7 |
| 20260506133206 | 48 | 71 | 2.6 | 7.0 | 0.00 | 0.00 | 0.00 | 61 | 1015.7 |
| 20260506132706 | 49 | 63 | 5.2 | 10.4 | 0.00 | 0.00 | 0.00 | 63 | 1015.7 |
| 20260506131707 | 48 | 50 | 2.6 | 15.6 | 0.00 | 0.00 | 0.00 | 65 | 1015.7 |
| 20260506131206 | 48 | 59 | 2.6 | 15.6 | 0.00 | 0.00 | 0.00 | 67 | 1015.7 |
| 20260506130705 | 47 | 61 | 2.6 | 8.7 | 0.00 | 0.00 | 0.00 | 65 | 1015.8 |
| 20260506130205 | 47 | 59 | 2.6 | 8.7 | 0.00 | 0.00 | 0.00 | 65 | 1015.7 |
| 20260506125705 | 47 | 30 | 5.2 | 11.3 | 0.00 | 0.00 | 0.00 | 65 | 1015.7 |
| 20260506125205 | 47 | 60 | 5.2 | 7.8 | 0.00 | 0.00 | 0.00 | 66 | 1015.7 |
| 20260506124705 | 46 | 65 | 4.3 | 7.0 | 0.00 | 0.00 | 0.00 | 67 | 1015.8 |
| 20260506124206 | 46 | 65 | 2.6 | 7.0 | 0.00 | 0.00 | 0.00 | 67 | 1015.8 |
| 20260506123205 | 45 | 38 | 3.5 | 7.0 | 0.00 | 0.00 | 0.00 | 67 | 1015.8 |
| 20260506122705 | 45 | 61 | 4.3 | 7.0 | 0.00 | 0.00 | 0.00 | 66 | 1015.9 |
| 20260506122205 | 46 | 39 | 2.6 | 7.0 | 0.00 | 0.00 | 0.00 | 69 | 1015.9 |
| 20260506121706 | 45 | 57 | 3.5 | 6.1 | 0.00 | 0.00 | 0.00 | 67 | 1015.9 |
| 20260506121205 | 45 | 49 | 4.3 | 8.7 | 0.00 | 0.00 | 0.00 | 68 | 1015.9 |
| 20260506120206 | 46 | 59 | 3.5 | 7.0 | 0.00 | 0.00 | 0.00 | 68 | 1015.9 |
| 20260506115705 | 46 | 56 | 4.3 | 13.0 | 0.00 | 0.00 | 0.00 | 67 | 1015.9 |
| 20260506115205 | 46 | 52 | 4.3 | 13.0 | 0.00 | 0.00 | 0.00 | 69 | 1015.9 |
| 20260506114705 | 46 | 51 | 4.3 | 7.0 | 0.00 | 0.00 | 0.00 | 70 | 1015.9 |
| 20260506114206 | 46 | 52 | 1.7 | 7.0 | 0.00 | 0.00 | 0.00 | 70 | 1016.0 |
| 20260506113707 | 45 | 23 | 4.3 | 8.7 | 0.00 | 0.00 | 0.00 | 71 | 1016.0 |
| 20260506113206 | 45 | 58 | 1.7 | 5.2 | 0.00 | 0.00 | 0.00 | 69 | 1015.9 |
| 20260506112706 | 45 | 50 | 2.6 | 6.1 | 0.00 | 0.00 | 0.00 | 70 | 1016.0 |
| 20260506112206 | 45 | 36 | 2.6 | 6.1 | 0.00 | 0.00 | 0.00 | 69 | 1016.0 |
| 20260506111706 | 45 | 20 | 2.6 | 7.0 | 0.00 | 0.00 | 0.00 | 69 | 1016.0 |
| 20260506111206 | 45 | 43 | 2.6 | 7.0 | 0.00 | 0.00 | 0.00 | 69 | 1016.0 |
| 20260506110706 | 45 | 27 | 5.2 | 7.0 | 0.00 | 0.00 | 0.00 | 70 | 1016.0 |
| 20260506110205 | 45 | 43 | 3.5 | 8.7 | 0.00 | 0.00 | 0.00 | 70 | 1015.9 |
| 20260506105706 | 45 | 32 | 4.3 | 7.0 | 0.00 | 0.00 | 0.00 | 69 | 1015.9 |
| 20260506104706 | 46 | 53 | 4.3 | 7.0 | 0.00 | 0.00 | 0.00 | 69 | 1016.0 |
| 20260506104206 | 46 | 57 | 4.3 | 13.0 | 0.00 | 0.00 | 0.00 | 66 | 1016.0 |
| 20260506103706 | 46 | 49 | 4.3 | 10.4 | 0.00 | 0.00 | 0.00 | 68 | 1016.0 |
| 20260506103205 | 46 | 35 | 4.3 | 7.0 | 0.00 | 0.00 | 0.00 | 68 | 1016.0 |
| 20260506102706 | 46 | 40 | 6.1 | 14.8 | 0.00 | 0.00 | 0.00 | 64 | 1015.9 |
| 20260506102204 | 47 | 67 | 5.2 | 8.7 | 0.00 | 0.00 | 0.00 | 68 | 1015.9 |
| 20260506101706 | 46 | 29 | 5.2 | 11.3 | 0.00 | 0.00 | 0.00 | 67 | 1015.9 |
| 20260506101205 | 45 | 51 | 4.3 | 8.7 | 0.00 | 0.00 | 0.00 | 68 | 1016.0 |
| 20260506100706 | 45 | 64 | 2.6 | 7.0 | 0.00 | 0.00 | 0.00 | 69 | 1016.0 |
| 20260506100206 | 45 | 44 | 6.1 | 11.3 | 0.00 | 0.00 | 0.00 | 68 | 1016.0 |
| 20260506095706 | 44 | 49 | 4.3 | 7.0 | 0.00 | 0.00 | 0.00 | 68 | 1016.0 |
| 20260506095206 | 44 | 44 | 3.5 | 8.7 | 0.00 | 0.00 | 0.00 | 68 | 1016.1 |
| 20260506094707 | 44 | 49 | 4.3 | 10.4 | 0.00 | 0.00 | 0.00 | 68 | 1016.1 |
| 20260506094206 | 44 | 28 | 4.3 | 7.8 | 0.00 | 0.00 | 0.00 | 66 | 1016.0 |
| 20260506093705 | 44 | 56 | 3.5 | 11.3 | 0.00 | 0.00 | 0.00 | 67 | 1016.0 |
| 20260506093206 | 44 | 23 | 4.3 | 8.7 | 0.00 | 0.00 | 0.00 | 67 | 1016.0 |
| 20260506092705 | 44 | 63 | 3.5 | 6.1 | 0.00 | 0.00 | 0.00 | 66 | 1016.0 |
| 20260506091205 | 44 | 50 | 2.6 | 7.0 | 0.00 | 0.00 | 0.00 | 69 | 1016.0 |
| 20260506090705 | 44 | 25 | 2.6 | 6.1 | 0.00 | 0.00 | 0.00 | 68 | 1016.0 |
| 20260506090206 | 44 | 39 | 4.3 | 7.8 | 0.00 | 0.00 | 0.00 | 69 | 1016.0 |
| 20260506085707 | 44 | 29 | 3.5 | 6.1 | 0.00 | 0.00 | 0.00 | 71 | 1016.0 |
| 20260506085207 | 44 | 34 | 2.6 | 6.1 | 0.00 | 0.00 | 0.00 | 71 | 1016.0 |
| 20260506084706 | 44 | 52 | 3.5 | 7.0 | 0.00 | 0.00 | 0.00 | 71 | 1016.1 |
| 20260506084206 | 43 | 32 | 4.3 | 7.0 | 0.00 | 0.00 | 0.00 | 72 | 1016.1 |
| 20260506083705 | 43 | 31 | 2.6 | 7.0 | 0.00 | 0.00 | 0.00 | 73 | 1016.0 |
| 20260506083206 | 43 | 45 | 3.5 | 7.0 | 0.00 | 0.00 | 0.00 | 73 | 1016.0 |
| 20260506081706 | 43 | 41 | 5.2 | 8.7 | 0.00 | 0.00 | 0.00 | 74 | 1016.0 |
| 20260506081205 | 44 | 45 | 3.5 | 5.2 | 0.00 | 0.00 | 0.00 | 76 | 1015.9 |
| 20260506080705 | 44 | 10 | 4.3 | 6.1 | 0.00 | 0.00 | 0.00 | 78 | 1015.9 |
| 20260506080205 | 43 | 20 | 1.7 | 6.1 | 0.00 | 0.00 | 0.00 | 78 | 1015.8 |
| 20260506073205 | 43 | 57 | 5.2 | 13.0 | 0.00 | 0.00 | 0.00 | 78 | 1015.7 |
| 20260506072706 | 43 | 59 | 6.1 | 13.0 | 0.00 | 0.00 | 0.00 | 80 | 1015.7 |
| 20260506072205 | 43 | 53 | 4.3 | 12.2 | 0.00 | 0.00 | 0.00 | 83 | 1015.6 |
| 20260506071705 | 42 | 50 | 4.3 | 8.7 | 0.00 | 0.00 | 0.00 | 84 | 1015.6 |
| 20260506071205 | 42 | 64 | 7.0 | 12.2 | 0.00 | 0.00 | 0.00 | 85 | 1015.6 |
| 20260506070705 | 42 | 46 | 6.1 | 12.2 | 0.00 | 0.00 | 0.00 | 87 | 1015.5 |
| 20260506070205 | 41 | 49 | 4.3 | 12.2 | 0.00 | 0.00 | 0.00 | 89 | 1015.5 |
| 20260506062205 | 40 | 35 | 0.9 | 1.7 | 0.00 | 0.00 | 0.00 | 91 | 1015.4 |
| 20260506061706 | 39 | 21 | 0.9 | 0.9 | 0.00 | 0.00 | 0.00 | 91 | 1015.4 |
| 20260506061206 | 39 | 1 | 0.9 | 1.7 | 0.00 | 0.00 | 0.00 | 91 | 1015.4 |
| 20260506060705 | 39 | 4 | 2.6 | 7.0 | 0.00 | 0.00 | 0.00 | 91 | 1015.3 |
| 20260506060205 | 39 | 22 | 4.3 | 7.0 | 0.00 | 0.00 | 0.00 | 92 | 1015.3 |
| 20260506051207 | 36 | 38 | 1.7 | 2.6 | 0.00 | 0.00 | 0.00 | 92 | 1015.3 |
| 20260506050705 | 36 | 68 | 0.9 | 1.7 | 0.00 | 0.00 | 0.00 | 91 | 1015.3 |
| 20260506050205 | 35 | 41 | 0.0 | 0.9 | 0.00 | 0.00 | 0.00 | 91 | 1015.3 |
| 20260506044706 | 35 | 60 | 0.0 | 0.9 | 0.00 | 0.00 | 0.00 | 91 | 1015.2 |
| 20260506044205 | 35 | 57 | 0.0 | 1.7 | 0.00 | 0.00 | 0.00 | 90 | 1015.3 |
| 20260506043705 | 35 | 47 | 0.0 | 0.9 | 0.00 | 0.00 | 0.00 | 90 | 1015.2 |
| 20260506043205 | 36 | 27 | 0.9 | 0.9 | 0.00 | 0.00 | 0.00 | 90 | 1015.2 |
| 20260506042705 | 36 | 18 | 0.0 | 0.9 | 0.00 | 0.00 | 0.00 | 90 | 1015.2 |
| 20260506041705 | 36 | 10 | 0.0 | 0.9 | 0.00 | 0.00 | 0.00 | 90 | 1015.2 |
| 20260506041205 | 36 | 29 | 0.0 | 0.9 | 0.00 | 0.00 | 0.00 | 90 | 1015.2 |
| 20260506040705 | 36 | 36 | 0.0 | 0.9 | 0.00 | 0.00 | 0.00 | 90 | 1015.2 |
| 20260506040206 | 37 | 37 | 0.0 | 0.9 | 0.00 | 0.00 | 0.00 | 90 | 1015.3 |
| 20260506035707 | 37 | 37 | 0.0 | 0.0 | 0.00 | 0.00 | 0.00 | 90 | 1015.2 |
| 20260506034705 | 37 | 37 | 0.9 | 0.9 | 0.00 | 0.00 | 0.00 | 90 | 1015.3 |
| 20260506034206 | 37 | 37 | 0.0 | 0.9 | 0.00 | 0.00 | 0.00 | 90 | 1015.3 |
| 20260506033706 | 37 | 37 | 0.9 | 1.7 | 0.00 | 0.00 | 0.00 | 90 | 1015.3 |
| 20260506033206 | 38 | 32 | 0.9 | 4.3 | 0.00 | 0.00 | 0.00 | 90 | 1015.3 |
| 20260506032706 | 38 | 3 | 1.7 | 4.3 | 0.00 | 0.00 | 0.00 | 90 | 1015.3 |
| 20260506031707 | 38 | 1 | 0.9 | 4.3 | 0.00 | 0.00 | 0.00 | 90 | 1015.3 |
| 20260506031206 | 38 | 6 | 0.9 | 4.3 | 0.00 | 0.00 | 0.00 | 90 | 1015.3 |
| 20260506030706 | 38 | 1 | 0.9 | 4.3 | 0.00 | 0.00 | 0.00 | 91 | 1015.3 |
| 20260506025706 | 38 | 1 | 0.9 | 5.2 | 0.00 | 0.00 | 0.00 | 91 | 1015.3 |
| 20260506024705 | 37 | 50 | 0.9 | 1.7 | 0.00 | 0.00 | 0.00 | 90 | 1015.3 |
| 20260506024207 | 37 | 50 | 0.0 | 0.9 | 0.00 | 0.00 | 0.00 | 90 | 1015.4 |
| 20260506023706 | 37 | 49 | 0.9 | 1.7 | 0.00 | 0.00 | 0.00 | 90 | 1015.3 |
| 20260506023205 | 37 | 55 | 0.0 | 1.7 | 0.00 | 0.00 | 0.00 | 90 | 1015.3 |
| 20260506022706 | 37 | 65 | 0.9 | 1.7 | 0.00 | 0.00 | 0.00 | 90 | 1015.3 |
| 20260506022206 | 37 | 0 | 0.0 | 0.9 | 0.00 | 0.00 | 0.00 | 90 | 1015.4 |
| 20260506021206 | 37 | 3 | 0.9 | 1.7 | 0.00 | 0.00 | 0.00 | 89 | 1015.4 |
| 20260506020705 | 37 | 0 | 0.9 | 4.3 | 0.00 | 0.00 | 0.00 | 89 | 1015.4 |
| 20260506020206 | 36 | 6 | 0.9 | 4.3 | 0.00 | 0.00 | 0.00 | 89 | 1015.4 |
| 20260506015206 | 36 | 24 | 0.0 | 2.6 | 0.00 | 0.00 | 0.00 | 88 | 1015.5 |
| 20260506014706 | 36 | 35 | 0.9 | 1.7 | 0.00 | 0.00 | 0.00 | 88 | 1015.4 |
| 20260506014206 | 36 | 40 | 0.0 | 0.9 | 0.00 | 0.00 | 0.00 | 88 | 1015.5 |
| 20260506013704 | 37 | 51 | 0.0 | 1.7 | 0.00 | 0.00 | 0.00 | 88 | 1015.4 |
| 20260506013206 | 37 | 55 | 0.9 | 1.7 | 0.00 | 0.00 | 0.00 | 88 | 1015.4 |
| 20260506012706 | 37 | 47 | 0.9 | 1.7 | 0.00 | 0.00 | 0.00 | 88 | 1015.4 |
| 20260506011705 | 38 | 5 | 0.9 | 1.7 | 0.00 | 0.00 | 0.00 | 88 | 1015.4 |
| 20260506011206 | 38 | 28 | 0.9 | 0.9 | 0.00 | 0.00 | 0.00 | 88 | 1015.4 |
| 20260506010206 | 38 | 22 | 0.9 | 4.3 | 0.00 | 0.00 | 0.00 | 88 | 1015.4 |
| 20260506005706 | 38 | 8 | 1.7 | 4.3 | 0.00 | 0.00 | 0.00 | 88 | 1015.5 |
| 20260506005206 | 37 | 13 | 0.9 | 5.2 | 0.00 | 0.00 | 0.00 | 88 | 1015.5 |
| 20260506004205 | 37 | 359 | 3.5 | 6.1 | 0.00 | 0.00 | 0.00 | 87 | 1015.6 |
| 20260506003706 | 37 | 0 | 1.7 | 4.3 | 0.00 | 0.00 | 0.00 | 87 | 1015.6 |
| 20260506003206 | 37 | 19 | 0.9 | 1.7 | 0.00 | 0.00 | 0.00 | 86 | 1015.6 |
| 20260506002706 | 37 | 22 | 0.9 | 1.7 | 0.00 | 0.00 | 0.00 | 86 | 1015.6 |
| 20260506002205 | 37 | 21 | 0.0 | 0.9 | 0.00 | 0.00 | 0.00 | 87 | 1015.7 |
| 20260506001706 | 37 | 1 | 0.0 | 1.7 | 0.00 | 0.00 | 0.00 | 87 | 1015.6 |
| 20260506000726 | 38 | 1 | 1.7 | 4.3 | 0.00 | 0.00 | 0.00 | 87 | 1015.7 |
| 20260506000206 | 38 | 0 | 1.7 | 4.3 | 0.00 | 0.00 | 0.00 | 87 | 1015.7 |
| 20260505235206 | 38 | 0 | 1.7 | 4.3 | 0.00 | 0.00 | 0.00 | 87 | 1015.8 |
| 20260505234706 | 38 | 0 | 0.9 | 1.7 | 0.00 | 0.00 | 0.00 | 87 | 1015.8 |
| 20260505234206 | 38 | 3 | 0.0 | 1.7 | 0.00 | 0.00 | 0.00 | 86 | 1015.8 |
| 20260505233205 | 38 | 1 | 0.9 | 0.9 | 0.00 | 0.00 | 0.00 | 85 | 1015.9 |
| 20260505231706 | 38 | 7 | 0.0 | 0.9 | 0.00 | 0.00 | 0.00 | 84 | 1016.0 |
| 20260505230712 | 39 | 0 | 1.7 | 4.3 | 0.00 | 0.00 | 0.00 | 84 | 1015.9 |
| 20260505230205 | 39 | 0 | 0.9 | 1.7 | 0.00 | 0.00 | 0.00 | 84 | 1016.0 |
| 20260505225206 | 40 | 1 | 0.9 | 1.7 | 0.00 | 0.00 | 0.00 | 84 | 1016.0 |
| 20260505224707 | 40 | 3 | 0.9 | 5.2 | 0.00 | 0.00 | 0.00 | 84 | 1015.9 |
| 20260505224205 | 40 | 6 | 0.9 | 1.7 | 0.00 | 0.00 | 0.00 | 83 | 1015.9 |
| 20260505223705 | 40 | 17 | 0.9 | 1.7 | 0.00 | 0.00 | 0.00 | 83 | 1015.9 |
| 20260505223206 | 40 | 29 | 1.7 | 2.6 | 0.00 | 0.00 | 0.00 | 83 | 1015.9 |
| 20260505222706 | 41 | 36 | 0.9 | 4.3 | 0.00 | 0.00 | 0.00 | 83 | 1015.9 |
| 20260505222206 | 41 | 27 | 1.7 | 4.3 | 0.00 | 0.00 | 0.00 | 84 | 1016.0 |
| 20260505221706 | 41 | 49 | 0.9 | 4.3 | 0.00 | 0.00 | 0.00 | 84 | 1016.0 |
| 20260505221205 | 41 | 31 | 1.7 | 4.3 | 0.00 | 0.00 | 0.00 | 84 | 1016.0 |
| 20260505220705 | 41 | 42 | 0.9 | 4.3 | 0.00 | 0.00 | 0.00 | 84 | 1016.0 |
| 20260505215706 | 41 | 40 | 2.6 | 6.1 | 0.00 | 0.00 | 0.00 | 85 | 1016.0 |
| 20260505215206 | 41 | 46 | 2.6 | 5.2 | 0.00 | 0.00 | 0.00 | 85 | 1016.0 |
| 20260505214705 | 41 | 46 | 2.6 | 5.2 | 0.00 | 0.00 | 0.00 | 85 | 1016.0 |
| 20260505214206 | 41 | 42 | 1.7 | 5.2 | 0.00 | 0.00 | 0.00 | 85 | 1016.1 |
| 20260505213706 | 41 | 35 | 1.7 | 6.1 | 0.00 | 0.00 | 0.00 | 85 | 1016.1 |
| 20260505212205 | 41 | 35 | 1.7 | 7.0 | 0.00 | 0.00 | 0.00 | 85 | 1016.1 |
| 20260505211706 | 41 | 32 | 2.6 | 7.0 | 0.00 | 0.00 | 0.00 | 85 | 1016.1 |
| 20260505211205 | 41 | 30 | 1.7 | 6.1 | 0.00 | 0.00 | 0.00 | 85 | 1016.2 |
| 20260505210706 | 41 | 24 | 3.5 | 7.0 | 0.00 | 0.00 | 0.00 | 85 | 1016.2 |
| 20260505210206 | 41 | 24 | 3.5 | 7.0 | 0.00 | 0.00 | 0.00 | 85 | 1016.2 |
| 20260505205707 | 41 | 37 | 3.5 | 7.0 | 0.00 | 0.00 | 0.00 | 85 | 1016.2 |
| 20260505205207 | 42 | 37 | 2.6 | 6.1 | 0.00 | 0.00 | 0.00 | 85 | 1016.3 |
| 20260505204707 | 42 | 33 | 2.6 | 8.7 | 0.00 | 0.00 | 0.00 | 85 | 1016.3 |
| 20260505204207 | 42 | 33 | 1.7 | 7.0 | 0.00 | 0.00 | 0.00 | 86 | 1016.2 |
| 20260505203707 | 42 | 45 | 2.6 | 6.1 | 0.00 | 0.00 | 0.00 | 86 | 1016.2 |
| 20260505203206 | 42 | 41 | 3.5 | 7.8 | 0.00 | 0.00 | 0.00 | 86 | 1016.2 |
| 20260505202706 | 42 | 42 | 2.6 | 5.2 | 0.00 | 0.00 | 0.00 | 86 | 1016.2 |
| 20260505202206 | 42 | 27 | 2.6 | 6.1 | 0.00 | 0.00 | 0.00 | 86 | 1016.1 |
| 20260505201707 | 42 | 39 | 1.7 | 5.2 | 0.00 | 0.00 | 0.00 | 86 | 1016.1 |
| 20260505201206 | 42 | 37 | 2.6 | 7.0 | 0.00 | 0.00 | 0.00 | 86 | 1016.1 |
| 20260505200706 | 42 | 52 | 2.6 | 7.8 | 0.00 | 0.00 | 0.00 | 86 | 1016.1 |
| 20260505200206 | 42 | 42 | 2.6 | 7.0 | 0.00 | 0.00 | 0.00 | 86 | 1016.1 |
| 20260505195706 | 42 | 38 | 4.3 | 8.7 | 0.00 | 0.00 | 0.00 | 86 | 1016.0 |
| 20260505194706 | 42 | 50 | 3.5 | 8.7 | 0.00 | 0.00 | 0.00 | 86 | 1016.0 |
| 20260505193706 | 42 | 32 | 3.5 | 11.3 | 0.00 | 0.00 | 0.00 | 86 | 1015.9 |
| 20260505192705 | 42 | 39 | 2.6 | 10.4 | 0.00 | 0.00 | 0.00 | 86 | 1015.9 |
| 20260505192206 | 42 | 55 | 2.6 | 8.7 | 0.00 | 0.00 | 0.00 | 86 | 1015.7 |
| 20260505191705 | 43 | 33 | 5.2 | 14.8 | 0.00 | 0.00 | 0.00 | 86 | 1015.8 |
| 20260505191206 | 43 | 35 | 5.2 | 11.3 | 0.00 | 0.00 | 0.00 | 86 | 1015.7 |
| 20260505190705 | 43 | 30 | 5.2 | 8.7 | 0.00 | 0.00 | 0.00 | 86 | 1015.7 |
| 20260505190206 | 43 | 42 | 5.2 | 8.7 | 0.00 | 0.00 | 0.00 | 86 | 1015.7 |
| 20260505185706 | 43 | 34 | 4.3 | 10.4 | 0.00 | 0.00 | 0.00 | 86 | 1015.7 |
| 20260505185206 | 43 | 54 | 3.5 | 6.1 | 0.00 | 0.00 | 0.00 | 86 | 1015.7 |
| 20260505184706 | 43 | 57 | 3.5 | 11.3 | 0.00 | 0.00 | 0.00 | 85 | 1015.5 |
| 20260505184206 | 43 | 40 | 2.6 | 5.2 | 0.00 | 0.00 | 0.00 | 85 | 1015.5 |
| 20260505183706 | 43 | 44 | 3.5 | 7.0 | 0.00 | 0.00 | 0.00 | 85 | 1015.5 |
| 20260505183206 | 43 | 43 | 5.2 | 11.3 | 0.00 | 0.00 | 0.00 | 85 | 1015.4 |
| 20260505182706 | 44 | 32 | 5.2 | 11.3 | 0.00 | 0.00 | 0.00 | 86 | 1015.5 |
| 20260505182206 | 44 | 46 | 6.1 | 12.2 | 0.00 | 0.00 | 0.00 | 85 | 1015.4 |
| 20260505181706 | 44 | 34 | 5.2 | 7.0 | 0.00 | 0.00 | 0.00 | 85 | 1015.4 |
| 20260505181205 | 44 | 31 | 4.3 | 6.1 | 0.00 | 0.00 | 0.00 | 84 | 1015.5 |
| 20260505180705 | 44 | 46 | 3.5 | 11.3 | 0.00 | 0.00 | 0.00 | 84 | 1015.5 |
| 20260505180206 | 44 | 44 | 4.3 | 11.3 | 0.00 | 0.00 | 0.00 | 84 | 1015.5 |
| 20260505175207 | 44 | 31 | 4.3 | 8.7 | 0.00 | 0.00 | 0.00 | 83 | 1015.5 |
| 20260505174706 | 44 | 38 | 4.3 | 8.7 | 0.00 | 0.00 | 0.00 | 83 | 1015.5 |
| 20260505174206 | 44 | 38 | 2.6 | 7.0 | 0.00 | 0.00 | 0.00 | 83 | 1015.5 |
| 20260505173705 | 44 | 34 | 4.3 | 8.7 | 0.00 | 0.00 | 0.00 | 83 | 1015.5 |
| 20260505172206 | 45 | 33 | 4.3 | 12.2 | 0.00 | 0.00 | 0.00 | 82 | 1015.5 |
| 20260505170205 | 45 | 25 | 5.2 | 7.0 | 0.00 | 0.00 | 0.00 | 82 | 1015.5 |
| 20260505165706 | 45 | 20 | 6.1 | 11.3 | 0.00 | 0.00 | 0.00 | 82 | 1015.5 |
| 20260505164705 | 45 | 22 | 5.2 | 8.7 | 0.00 | 0.00 | 0.00 | 84 | 1015.3 |
| 20260505164206 | 45 | 34 | 4.3 | 8.7 | 0.00 | 0.00 | 0.00 | 83 | 1015.3 |
| 20260505163705 | 45 | 36 | 5.2 | 10.4 | 0.00 | 0.00 | 0.00 | 83 | 1015.3 |
| 20260505163205 | 45 | 8 | 5.2 | 10.4 | 0.00 | 0.00 | 0.00 | 83 | 1015.3 |
| 20260505162706 | 45 | 43 | 5.2 | 11.3 | 0.00 | 0.00 | 0.00 | 82 | 1015.3 |
| 20260505162205 | 45 | 20 | 6.1 | 12.2 | 0.00 | 0.00 | 0.00 | 82 | 1015.3 |
| 20260505161706 | 46 | 32 | 6.1 | 12.2 | 0.00 | 0.00 | 0.00 | 82 | 1015.2 |
| 20260505160705 | 46 | 30 | 6.1 | 10.4 | 0.00 | 0.00 | 0.00 | 83 | 1015.2 |
| 20260505160206 | 46 | 44 | 4.3 | 8.7 | 0.00 | 0.00 | 0.00 | 84 | 1015.2 |